RADUGA 12 [-]

Last updated on Jan. 15, 2021, 6:32 a.m. UTC

1 13974U 83028A   21014.82518889 -.00000134  00000-0  00000-0 0  9991
2 13974  12.1672 323.5265 0003879  44.4291 121.2469  1.00294835149531
UTC
Height (km)
Latitude
Longitude
Inclination
Orbital Period
UTC large
Height (km)
Speed (km/s)
/
Latitude / Longitude
Inclination (degrees)
Orbital Period (minutes)
Azimuth
Elevation
Range (km)
Doppler Factor
iOS Compass Heading
iOS Angle

Next 30 passes for location: Hong Kong

Rise time Rise Azimuth (degrees) Set time Set Azimuth (degrees) Duration Max altitude (degrees)

No matching passes for this satellites